CW5532 Weather Reports


Display with metric or nautical units.
time (UTC)temp
F
wind
direction
speed
MPH
gust
MPH
rain 1hr
in
rain 24hr
in
rain mn
in
humidity
%
barometer
mb
20260509170713 55 70 0.0 0.0 0.17 0.36 0.36 85 1010.1
20260509170214 55 65 0.0 2.0 0.20 0.36 0.36 85 1010.3
20260509160714 56 250 0.0 0.0 0.17 0.19 0.19 84 1011.6
20260509160214 56 250 0.0 10.0 0.15 0.17 0.17 84 1011.7
20260509153714 58 218 2.0 8.0 0.02 0.03 0.03 83 1011.5
20260509153214 58 217 0.0 3.0 0.02 0.02 0.02 84 1011.3
20260509150714 58 89 0.0 0.0 0.02 0.02 0.02 83 1009.6
20260509150214 58 91 0.0 0.0 0.02 0.02 0.02 83 1009.5
20260509140713 61 138 0.0 0.0 0.00 0.00 0.00 79 1010.3
20260509133713 62 217 0.0 0.0 0.00 0.00 0.00 77 1010.7
20260509130213 62 150 0.0 0.0 0.00 0.00 0.00 78 1011.0
20260509123713 61 114 0.0 0.0 0.00 0.00 0.00 77 1010.8
20260509110213 63 116 0.0 0.0 0.00 0.00 0.00 74 1012.0
20260509100713 63 108 0.0 0.0 0.00 0.00 0.00 73 1012.2
20260509090213 61 65 0.0 0.0 0.00 0.00 0.00 78 1011.9
20260509083212 57 103 0.0 0.0 0.00 0.00 0.00 82 1012.2
20260509080712 56 67 0.0 0.0 0.00 0.00 0.00 84 1012.3
20260509080212 56 66 0.0 2.0 0.00 0.00 0.00 84 1012.2
20260509073212 56 80 0.0 1.0 0.00 0.00 0.00 85 1012.3
20260509070212 55 178 0.0 0.0 0.00 0.00 0.00 84 1012.5
20260509063712 54 190 0.0 0.0 0.00 0.00 0.00 84 1012.5
20260509063212 53 190 0.0 0.0 0.00 0.00 0.00 84 1012.6
20260509060712 52 175 0.0 0.0 0.00 0.00 0.00 84 1012.9
20260509053712 51 242 0.0 0.0 0.00 0.00 0.00 85 1012.7
20260509050712 50 263 0.0 0.0 0.00 0.00 0.00 85 1012.9
20260509050212 50 263 0.0 1.0 0.00 0.00 0.00 85 1012.8
20260509043712 50 259 0.0 0.0 0.00 0.00 0.00 85 1012.7
20260509043212 50 259 0.0 0.0 0.00 0.00 0.00 85 1012.6
20260509040711 50 259 0.0 0.0 0.00 0.00 0.00 85 1012.7
20260509040212 50 259 0.0 0.0 0.00 0.00 0.00 85 1012.6
20260509033212 51 259 0.0 0.0 0.00 0.00 0.00 85 1012.8
20260509030712 51 259 0.0 0.0 0.00 0.00 0.00 85 1012.8
20260509030212 51 259 0.0 0.0 0.00 0.00 0.00 84 1012.8
20260509020712 51 259 0.0 0.0 0.00 0.00 0.00 85 1013.2
20260509013712 50 259 0.0 0.0 0.00 0.00 0.00 85 1013.6
20260509010712 49 259 0.0 0.0 0.00 0.00 0.00 85 1013.9
20260509003212 48 262 0.0 0.0 0.00 0.00 0.00 85 1014.2
20260508230711 47 194 0.0 0.0 0.00 0.00 0.00 84 1014.2
20260508223212 48 194 0.0 0.0 0.00 0.00 0.00 84 1014.3
20260508213712 49 194 0.0 0.0 0.00 0.00 0.00 84 1014.2
20260508213212 49 194 0.0 0.0 0.00 0.00 0.00 84 1014.2
20260508210711 51 194 0.0 0.0 0.00 0.00 0.00 84 1014.1
20260508210212 51 194 0.0 0.0 0.00 0.00 0.00 84 1014.2
20260508203712 52 194 0.0 0.0 0.00 0.00 0.00 83 1014.3
20260508200711 54 194 0.0 0.0 0.00 0.00 0.00 83 1013.6
20260508200211 54 194 0.0 0.0 0.00 0.00 0.00 82 1013.6
20260508193711 56 160 0.0 0.0 0.00 0.00 0.00 82 1013.3
20260508190211 59 159 0.0 0.0 0.00 0.00 0.00 82 1012.6
20260508183711 60 148 0.0 0.0 0.00 0.00 0.00 80 1012.5
20260508183211 60 148 0.0 0.0 0.00 0.00 0.00 80 1012.5
20260508180711 62 199 0.0 0.0 0.00 0.00 0.00 78 1012.2
20260508180211 62 194 0.0 6.0 0.00 0.00 0.00 78 1012.1
20260508173710 63 125 0.0 5.0 0.00 0.00 0.00 74 1012.3
20260508173211 63 159 0.0 5.0 0.00 0.00 0.00 73 1012.2